Flag for U.S.A. Weather past 2 weeks in Bryan – College Station, Texas, U.S.A.

Now
69 °F

Overcast.


Feels Like: 69 °F
Forecast: 65 / 80 °F
Wind: 12 mph from Southwest

Location: Easterwood Field

Current Time: Mar 31, 2015 at 10:52:07 AM

Latest Report: Mar 31, 2015 at 9:53 AM


Visibility: 10 mi

Pressure: 30.08 "Hg

Humidity: 73%

Dew point: 60 °F

Location of Bryan – College StationLocation

Historic Weather in Bryan – College Station — Graph

°F

Bryan – College Station temperature yesterday

Maximum temperature yesterday: 80 °F (at 3:53 PM)
Minimum temperature yesterday: 61 °F (at 4:53 AM)
Average temperature yesterday: 70 °F

Past Weeks' High & Low Weather Summary

 TemperatureHumidityPressure
High83 °F (Mar 29, 3:53 PM)100% (Mar 19, 9:01 AM)30.28 "Hg (Mar 19, 9:01 AM)
Low44 °F (Mar 27, 5:53 AM)23% (Mar 27, 4:53 PM)29.85 "Hg (Mar 26, 2:53 AM)
Average66 °F74%30.04 "Hg
* Reported Mar 16 9:53 AM — Mar 31 9:53 AM, Bryan – College Station, Weather by CustomWeather, © 2015

Note: Actual official high and low records may vary slightly from our data, if they occured in-between our weather recording intervals... More about our weather records

Advertising

Bryan – College Station weather history for previous 24 hours

 ConditionsComfort  
Time TempWeatherWind HumidityBarometerVisibility
9:53 AM
Tue, Mar 31
69 °FOvercast.12 mph73%30.08 "Hg10 mi
8:53 AM66 °FOvercast.7 mph84%30.08 "Hg10 mi
7:53 AM65 °FOvercast.9 mph87%30.06 "Hg10 mi
6:53 AM65 °FOvercast.9 mph87%30.04 "Hg10 mi
5:53 AM65 °FPassing clouds.7 mph91%30.03 "Hg10 mi
4:53 AM66 °FOvercast.9 mph87%30.02 "Hg10 mi
3:53 AM65 °FOvercast.7 mph94%30.03 "Hg10 mi
2:53 AM64 °FPassing clouds.7 mph94%30.05 "Hg10 mi
1:53 AM65 °FClear.7 mph91%30.06 "Hg10 mi
12:53 AM66 °FClear.7 mph84%30.08 "Hg10 mi
11:53 PM
Mon, Mar 30
68 °FClear.10 mph82%30.08 "Hg10 mi
10:53 PM70 °FClear.10 mph79%30.08 "Hg10 mi
9:53 PM72 °FClear.10 mph73%30.07 "Hg10 mi
8:53 PM71 °FClear.7 mph73%30.06 "Hg10 mi
7:53 PM74 °FPassing clouds.7 mph67%30.05 "Hg10 mi
6:53 PM78 °FScattered clouds.10 mph58%30.05 "Hg10 mi
5:53 PM80 °FPartly sunny.14 mph54%30.05 "Hg10 mi
4:53 PM79 °FPartly sunny.9 mph54%30.07 "Hg10 mi
3:53 PM80 °FMore clouds than sun.9 mph54%30.09 "Hg10 mi
2:53 PM78 °FOvercast.14 mph58%30.11 "Hg10 mi
1:53 PM76 °FOvercast.8 mph62%30.15 "Hg10 mi
12:53 PM78 °FScattered clouds.14 mph56%30.17 "Hg10 mi
11:53 AM74 °FCloudy.12 mph69%30.18 "Hg10 mi
10:53 AM72 °FPartly sunny.13 mph76%30.18 "Hg10 mi
Weather by CustomWeather, © 2015

See weather overviewHow to use our weather pages